DW9584 Weather Reports


Display with metric or nautical units.
time (UTC)temp
F
wind
direction
speed
MPH
gust
MPH
rain 1hr
in
rain 24hr
in
rain mn
in
humidity
%
barometer
mb
20260503014518 52 296 1.0 3.0 0.00 0.00 0.00 47 1012.2
20260503013028 52 304 0.0 3.0 0.00 0.00 0.00 46 1012.0
20260503011528 53 318 1.0 5.0 0.00 0.00 0.00 45 1012.0
20260503010030 53 278 0.0 5.0 0.00 0.00 0.00 47 1011.7
20260503004526 53 292 0.0 2.0 0.00 0.00 0.00 45 1011.8
20260503003032 54 303 0.0 5.0 0.00 0.00 0.00 43 1011.6
20260503001526 54 303 1.0 5.0 0.00 0.00 0.00 43 1011.6
20260503000029 54 295 1.0 5.0 0.00 0.00 0.00 45 1011.5
20260502234542 54 311 0.0 4.0 0.00 0.00 0.00 42 1011.2
20260502233015 55 322 2.0 4.0 0.00 0.00 0.00 40 1011.2
20260502231515 55 309 0.0 4.0 0.00 0.00 0.00 40 1011.1
20260502230014 56 290 0.0 7.0 0.00 0.00 0.00 39 1011.3
20260502224509 57 303 2.0 10.0 0.00 0.00 0.00 38 1011.3
20260502223037 57 210 0.0 3.0 0.00 0.00 0.00 39 1011.2
20260502221526 58 312 1.0 6.0 0.00 0.00 0.00 38 1011.1
20260502220026 58 243 0.0 4.0 0.00 0.00 0.00 39 1011.1
20260502214524 57 267 2.0 5.0 0.00 0.00 0.00 38 1011.1
20260502213019 59 269 1.0 8.0 0.00 0.00 0.00 39 1011.0
20260502211523 58 342 1.0 5.0 0.00 0.00 0.00 38 1010.8
20260502210014 59 323 0.0 7.0 0.00 0.00 0.00 38 1010.7
20260502204512 59 300 1.0 4.0 0.00 0.00 0.00 40 1010.6
20260502203043 58 312 1.0 6.0 0.00 0.00 0.00 41 1010.6
20260502201526 58 256 1.0 7.0 0.00 0.00 0.00 37 1010.7
20260502200026 59 173 1.0 6.0 0.00 0.00 0.00 40 1010.9
20260502194527 59 143 2.0 8.0 0.00 0.00 0.00 41 1011.1
20260502193024 58 181 1.0 8.0 0.00 0.00 0.00 41 1011.4
20260502191521 59 44 1.0 6.0 0.00 0.00 0.00 41 1011.7
20260502190029 59 12 1.0 4.0 0.00 0.00 0.00 41 1011.9
20260502184527 59 136 0.0 6.0 0.00 0.00 0.00 36 1012.0
20260502183028 59 165 1.0 6.0 0.00 0.00 0.00 42 1012.3
20260502181525 60 30 1.0 6.0 0.00 0.00 0.00 41 1012.4
20260502163038 57 333 1.0 5.0 0.00 0.00 0.00 45 1013.1
20260502161536 57 73 2.0 5.0 0.00 0.00 0.00 45 1013.3
20260502151505 53 94 1.0 9.0 0.00 0.00 0.00 58 1013.2
20260502123028 51 58 1.0 10.0 0.00 0.00 0.00 75 1013.3
20260502121524 51 219 1.0 7.0 0.00 0.00 0.00 76 1013.2
20260502114511 50 91 0.0 4.0 0.00 0.00 0.00 77 1012.9
20260502113009 50 259 0.0 3.0 0.00 0.00 0.00 78 1012.8
20260502111507 50 264 0.0 4.0 0.00 0.00 0.00 80 1012.9
20260502110027 49 305 0.0 2.0 0.00 0.00 0.00 83 1012.8
20260502104522 49 284 0.0 2.0 0.00 0.00 0.00 85 1012.5
20260502103020 47 244 0.0 0.0 0.00 0.00 0.00 88 1012.4
20260502101520 47 244 0.0 0.0 0.00 0.00 0.00 86 1012.1
20260502091508 50 244 0.0 0.0 0.00 0.00 0.00 81 1012.3
20260502071510 52 219 0.0 2.0 0.00 0.00 0.00 73 1012.0
20260502070015 51 255 0.0 2.0 0.00 0.00 0.00 76 1012.0
20260502064508 51 261 0.0 0.0 0.00 0.00 0.00 78 1012.2
20260502063012 51 261 0.0 0.0 0.00 0.00 0.00 79 1012.3
20260502061510 51 261 0.0 0.0 0.00 0.00 0.00 78 1012.0
20260502060012 51 261 0.0 0.0 0.00 0.00 0.00 76 1012.3
20260502054514 51 261 0.0 0.0 0.00 0.00 0.00 75 1012.4
20260502053014 52 261 0.0 2.0 0.00 0.00 0.00 74 1012.6
20260502051519 52 261 0.0 2.0 0.00 0.00 0.00 73 1012.3
20260502050015 52 261 0.0 1.0 0.00 0.00 0.00 72 1012.7
20260502044516 52 261 0.0 2.0 0.00 0.00 0.00 73 1012.5
20260502043016 51 190 0.0 2.0 0.00 0.00 0.00 76 1012.6
20260502041516 51 183 0.0 0.0 0.00 0.00 0.00 77 1012.4
20260502040018 51 183 0.0 0.0 0.00 0.00 0.00 77 1012.3
20260502034517 51 183 0.0 0.0 0.00 0.00 0.00 77 1012.3
20260502033016 51 183 0.0 0.0 0.00 0.00 0.00 76 1012.2
20260502031512 52 183 0.0 0.0 0.00 0.00 0.00 74 1012.2
20260502030018 52 183 0.0 2.0 0.00 0.00 0.00 73 1011.9
20260502024525 52 183 0.0 0.0 0.00 0.00 0.00 72 1012.4
20260502023020 52 183 0.0 2.0 0.00 0.00 0.00 72 1012.5
20260502021521 52 146 0.0 0.0 0.00 0.00 0.00 70 1012.9
20260502020022 52 219 0.0 0.0 0.00 0.00 0.00 69 1012.6